User: anonymous   Login
Location: Vancouver
(49.2500°N, 123.1330°W)
Time: 01:36:16
(UTC-08:00)
Language:

H-2A R/B - Orbit

View from above orbital plane
View from above orbital plane
View from above satellite
View from above satellite

Ground track
Ground track

The orbit data is extracted from the following two-line orbital elements,

1 27601U 02056E   16343.83964256  .00000058  00000-0  36303-4 0  9991
2 27601  98.4017  51.9884 0073029 139.1374 333.8390 14.31752015730571
Epoch (UTC): 08 December 2016 20:09:05
Eccentricity: 0.0073029
inclination: 98.4017°
perigee height: 733 km
apogee height: 838 km
right ascension of ascending node: 51.9884°
argument of perigee: 139.1374°
revolutions per day: 14.31752015
mean anomaly at epoch: 333.8390°
orbit number at epoch: 73057

The dashed part of the orbit path shows where the satellite is in the earth's shadow,  

DLR